| time (UTC) | temp C | wind direction | speed KPH | gust KPH | rain 1hr cm | rain 24hr cm | rain mn cm | humidity % | barometer mb |
| 20260507065503 | 10 | 101 | 4.8 | 8.0 | 0.00 | 0.00 | 0.00 | 42 | 1017.0 |
| 20260507064544 | 9 | 72 | 8.0 | 12.9 | 0.00 | 0.00 | 0.00 | 42 | 1017.0 |
| 20260507063504 | 10 | 53 | 6.4 | 11.3 | 0.00 | 0.00 | 0.00 | 42 | 1017.0 |
| 20260507062524 | 10 | 73 | 4.8 | 9.7 | 0.00 | 0.00 | 0.00 | 43 | 1017.0 |
| 20260507061523 | 9 | 77 | 6.4 | 12.9 | 0.00 | 0.00 | 0.00 | 43 | 1017.0 |
| 20260507060503 | 10 | 82 | 6.4 | 12.9 | 0.00 | 0.00 | 0.00 | 45 | 1017.0 |
| 20260507055504 | 8 | 62 | 8.0 | 11.3 | 0.00 | 0.00 | 0.00 | 46 | 1016.9 |
| 20260507054504 | 8 | 73 | 6.4 | 9.7 | 0.00 | 0.00 | 0.00 | 48 | 1016.9 |
| 20260507053504 | 8 | 71 | 6.4 | 8.0 | 0.00 | 0.00 | 0.00 | 50 | 1016.9 |
| 20260507052503 | 8 | 61 | 4.8 | 8.0 | 0.00 | 0.00 | 0.00 | 51 | 1016.9 |
| 20260507051503 | 7 | 65 | 4.8 | 9.7 | 0.00 | 0.00 | 0.00 | 52 | 1016.9 |
| 20260507050505 | 8 | 72 | 4.8 | 8.0 | 0.00 | 0.00 | 0.00 | 52 | 1016.9 |
| 20260507045504 | 7 | 81 | 3.2 | 6.4 | 0.00 | 0.00 | 0.00 | 54 | 1016.9 |
| 20260507044525 | 7 | 71 | 3.2 | 6.4 | 0.00 | 0.00 | 0.00 | 58 | 1016.9 |
| 20260507043605 | 6 | 69 | 3.2 | 4.8 | 0.00 | 0.00 | 0.00 | 59 | 1016.9 |
| 20260507042505 | 6 | 20 | 3.2 | 4.8 | 0.00 | 0.00 | 0.00 | 60 | 1016.9 |
| 20260507041524 | 6 | 1 | 1.6 | 3.2 | 0.00 | 0.00 | 0.00 | 62 | 1016.9 |
| 20260507040503 | 5 | 32 | 3.2 | 4.8 | 0.00 | 0.00 | 0.00 | 63 | 1016.9 |
| 20260507035503 | 5 | 96 | 1.6 | 3.2 | 0.00 | 0.00 | 0.00 | 65 | 1016.9 |
| 20260507034505 | 3 | 186 | 1.6 | 3.2 | 0.00 | 0.00 | 0.00 | 69 | 1016.8 |
| 20260507033504 | 3 | 189 | 1.6 | 1.6 | 0.00 | 0.00 | 0.00 | 77 | 1016.8 |
| 20260507032504 | 3 | 190 | 0.0 | 1.6 | 0.00 | 0.00 | 0.00 | 79 | 1016.7 |
| 20260507031503 | 2 | 189 | 0.0 | 1.6 | 0.00 | 0.00 | 0.00 | 82 | 1016.7 |
| 20260507030505 | 2 | 190 | 1.6 | 1.6 | 0.00 | 0.00 | 0.00 | 80 | 1016.7 |
| 20260507025525 | 1 | 190 | 1.6 | 1.6 | 0.00 | 0.00 | 0.00 | 80 | 1016.5 |
| 20260507024524 | 0 | 190 | 1.6 | 1.6 | 0.00 | 0.00 | 0.00 | 83 | 1016.4 |
| 20260507023524 | 0 | 190 | 1.6 | 1.6 | 0.00 | 0.00 | 0.00 | 83 | 1016.4 |
| 20260507022503 | 0 | 190 | 1.6 | 1.6 | 0.00 | 0.00 | 0.00 | 81 | 1016.4 |
| 20260507021505 | 0 | 190 | 1.6 | 1.6 | 0.00 | 0.00 | 0.00 | 82 | 1016.5 |
| 20260507020504 | -1 | 190 | 1.6 | 1.6 | 0.00 | 0.00 | 0.00 | 87 | 1016.4 |
| 20260507015504 | 0 | 189 | 1.6 | 1.6 | 0.00 | 0.00 | 0.00 | 89 | 1016.3 |
| 20260507014503 | 0 | 189 | 1.6 | 3.2 | 0.00 | 0.00 | 0.00 | 88 | 1016.2 |
| 20260507013503 | 0 | 173 | 1.6 | 1.6 | 0.00 | 0.00 | 0.00 | 89 | 1016.1 |
| 20260507012504 | 0 | 173 | 1.6 | 1.6 | 0.00 | 0.00 | 0.00 | 86 | 1016.1 |
| 20260507011504 | 0 | 173 | 1.6 | 1.6 | 0.00 | 0.00 | 0.00 | 87 | 1016.1 |
| 20260507010504 | 0 | 173 | 1.6 | 3.2 | 0.00 | 0.00 | 0.00 | 84 | 1016.1 |
| 20260507005504 | 0 | 173 | 1.6 | 1.6 | 0.00 | 0.00 | 0.00 | 80 | 1016.1 |
| 20260507004503 | 0 | 173 | 1.6 | 1.6 | 0.00 | 0.00 | 0.00 | 78 | 1016.0 |
| 20260507003504 | 0 | 173 | 0.0 | 1.6 | 0.00 | 0.00 | 0.00 | 81 | 1015.9 |
| 20260507002505 | 0 | 172 | 3.2 | 3.2 | 0.00 | 0.00 | 0.00 | 73 | 1015.9 |
| 20260507001524 | 1 | 16 | 1.6 | 8.0 | 0.00 | 0.00 | 0.00 | 69 | 1015.9 |
| 20260507000544 | 1 | 18 | 3.2 | 6.4 | 0.00 | 0.00 | 0.00 | 69 | 1015.8 |
| 20260506235505 | 1 | 349 | 3.2 | 6.4 | 0.00 | 0.00 | 0.00 | 76 | 1015.7 |
| 20260506234505 | 1 | 254 | 1.6 | 3.2 | 0.00 | 0.00 | 0.00 | 75 | 1015.7 |
| 20260506233504 | 1 | 254 | 1.6 | 3.2 | 0.00 | 0.00 | 0.00 | 73 | 1015.7 |
| 20260506232525 | 1 | 264 | 1.6 | 3.2 | 0.00 | 0.00 | 0.00 | 73 | 1015.6 |
| 20260506231503 | 1 | 282 | 1.6 | 3.2 | 0.00 | 0.00 | 0.00 | 71 | 1015.5 |
| 20260506230605 | 1 | 242 | 1.6 | 3.2 | 0.00 | 0.00 | 0.00 | 68 | 1015.5 |
| 20260506225504 | 2 | 323 | 1.6 | 4.8 | 0.00 | 0.00 | 0.00 | 63 | 1015.3 |
| 20260506224504 | 2 | 339 | 4.8 | 9.7 | 0.00 | 0.00 | 0.00 | 64 | 1015.2 |
| 20260506223503 | 1 | 282 | 3.2 | 6.4 | 0.00 | 0.00 | 0.00 | 66 | 1015.2 |
| 20260506222503 | 1 | 243 | 3.2 | 6.4 | 0.00 | 0.00 | 0.00 | 64 | 1015.1 |
| 20260506221505 | 1 | 255 | 4.8 | 8.0 | 0.00 | 0.00 | 0.00 | 62 | 1015.1 |
| 20260506220504 | 1 | 258 | 3.2 | 4.8 | 0.00 | 0.00 | 0.00 | 64 | 1014.9 |
| 20260506215504 | 1 | 251 | 3.2 | 4.8 | 0.00 | 0.00 | 0.00 | 66 | 1014.8 |
| 20260506214503 | 1 | 244 | 3.2 | 4.8 | 0.00 | 0.00 | 0.00 | 68 | 1014.7 |
| 20260506213503 | 2 | 218 | 1.6 | 3.2 | 0.00 | 0.00 | 0.00 | 75 | 1014.7 |
| 20260506212504 | 2 | 217 | 1.6 | 3.2 | 0.00 | 0.00 | 0.00 | 80 | 1014.6 |
| 20260506211504 | 2 | 216 | 1.6 | 3.2 | 0.00 | 0.00 | 0.00 | 80 | 1014.5 |
| 20260506210504 | 2 | 215 | 1.6 | 3.2 | 0.00 | 0.00 | 0.00 | 77 | 1014.5 |
| 20260506205503 | 2 | 214 | 3.2 | 3.2 | 0.00 | 0.00 | 0.00 | 73 | 1014.4 |
| 20260506204504 | 2 | 225 | 3.2 | 4.8 | 0.00 | 0.00 | 0.00 | 70 | 1014.4 |
| 20260506203504 | 3 | 224 | 1.6 | 3.2 | 0.00 | 0.00 | 0.00 | 69 | 1014.4 |
| 20260506202504 | 3 | 224 | 1.6 | 3.2 | 0.00 | 0.00 | 0.00 | 63 | 1014.4 |
| 20260506201504 | 3 | 224 | 1.6 | 3.2 | 0.00 | 0.00 | 0.00 | 61 | 1014.3 |
| 20260506200503 | 3 | 233 | 3.2 | 8.0 | 0.00 | 0.00 | 0.00 | 63 | 1014.2 |
| 20260506195503 | 3 | 207 | 1.6 | 3.2 | 0.00 | 0.00 | 0.00 | 63 | 1014.2 |
| 20260506194504 | 3 | 207 | 1.6 | 1.6 | 0.00 | 0.00 | 0.00 | 64 | 1014.1 |
| 20260506193504 | 3 | 207 | 1.6 | 1.6 | 0.00 | 0.00 | 0.00 | 64 | 1014.1 |
| 20260506192524 | 3 | 207 | 1.6 | 1.6 | 0.00 | 0.00 | 0.00 | 62 | 1014.1 |
| 20260506191503 | 3 | 207 | 1.6 | 3.2 | 0.00 | 0.00 | 0.00 | 58 | 1014.0 |
| 20260506190503 | 4 | 209 | 1.6 | 1.6 | 0.00 | 0.00 | 0.00 | 57 | 1013.9 |
| 20260506185505 | 5 | 210 | 1.6 | 1.6 | 0.00 | 0.00 | 0.00 | 54 | 1014.0 |
| 20260506184504 | 4 | 207 | 1.6 | 3.2 | 0.00 | 0.00 | 0.00 | 57 | 1013.9 |
| 20260506183504 | 5 | 202 | 1.6 | 3.2 | 0.00 | 0.00 | 0.00 | 52 | 1013.8 |
| 20260506182503 | 5 | 218 | 1.6 | 3.2 | 0.00 | 0.00 | 0.00 | 53 | 1013.7 |
| 20260506181504 | 5 | 224 | 1.6 | 3.2 | 0.00 | 0.00 | 0.00 | 53 | 1013.7 |
| 20260506180524 | 6 | 210 | 3.2 | 6.4 | 0.00 | 0.00 | 0.00 | 50 | 1013.5 |
| 20260506175504 | 6 | 203 | 4.8 | 6.4 | 0.00 | 0.00 | 0.00 | 49 | 1013.5 |
| 20260506174503 | 6 | 201 | 3.2 | 4.8 | 0.00 | 0.00 | 0.00 | 50 | 1013.4 |
| 20260506173503 | 7 | 201 | 3.2 | 4.8 | 0.00 | 0.00 | 0.00 | 50 | 1013.3 |
| 20260506172505 | 7 | 209 | 3.2 | 4.8 | 0.00 | 0.00 | 0.00 | 49 | 1013.2 |
| 20260506171504 | 8 | 218 | 3.2 | 6.4 | 0.00 | 0.00 | 0.00 | 45 | 1013.1 |
| 20260506170504 | 8 | 219 | 3.2 | 8.0 | 0.00 | 0.00 | 0.00 | 45 | 1013.1 |
| 20260506165503 | 8 | 214 | 4.8 | 11.3 | 0.00 | 0.00 | 0.00 | 44 | 1013.0 |
| 20260506164503 | 8 | 235 | 4.8 | 11.3 | 0.00 | 0.00 | 0.00 | 38 | 1012.9 |
| 20260506163505 | 9 | 226 | 6.4 | 11.3 | 0.00 | 0.00 | 0.00 | 39 | 1012.8 |
| 20260506162504 | 9 | 236 | 4.8 | 9.7 | 0.00 | 0.00 | 0.00 | 38 | 1012.8 |
| 20260506161504 | 9 | 231 | 3.2 | 8.0 | 0.00 | 0.00 | 0.00 | 41 | 1012.8 |
| 20260506160503 | 9 | 218 | 3.2 | 6.4 | 0.00 | 0.00 | 0.00 | 38 | 1012.7 |
| 20260506155503 | 9 | 260 | 8.0 | 19.3 | 0.00 | 0.00 | 0.00 | 37 | 1012.7 |
| 20260506154504 | 10 | 264 | 6.4 | 16.1 | 0.00 | 0.00 | 0.00 | 37 | 1012.7 |
| 20260506153504 | 10 | 217 | 4.8 | 11.3 | 0.00 | 0.00 | 0.00 | 38 | 1012.6 |
| 20260506152504 | 10 | 205 | 4.8 | 11.3 | 0.00 | 0.00 | 0.00 | 40 | 1012.6 |
| 20260506151503 | 10 | 207 | 6.4 | 9.7 | 0.00 | 0.00 | 0.00 | 36 | 1012.5 |
| 20260506150503 | 10 | 229 | 6.4 | 16.1 | 0.00 | 0.00 | 0.00 | 36 | 1012.5 |
| 20260506145525 | 10 | 208 | 6.4 | 12.9 | 0.00 | 0.00 | 0.00 | 37 | 1012.5 |
| 20260506144504 | 10 | 208 | 6.4 | 11.3 | 0.00 | 0.00 | 0.00 | 36 | 1012.4 |
| 20260506143504 | 9 | 233 | 4.8 | 14.5 | 0.00 | 0.00 | 0.00 | 40 | 1012.4 |
| 20260506142523 | 8 | 216 | 3.2 | 8.0 | 0.00 | 0.00 | 0.00 | 43 | 1012.4 |
| 20260506141503 | 9 | 213 | 4.8 | 9.7 | 0.00 | 0.00 | 0.00 | 42 | 1012.4 |
| 20260506140504 | 10 | 212 | 4.8 | 9.7 | 0.00 | 0.00 | 0.00 | 39 | 1012.3 |
| 20260506135504 | 10 | 226 | 6.4 | 17.7 | 0.00 | 0.00 | 0.00 | 39 | 1012.2 |
| 20260506134504 | 11 | 215 | 6.4 | 11.3 | 0.00 | 0.00 | 0.00 | 37 | 1012.1 |
| 20260506133503 | 10 | 283 | 8.0 | 14.5 | 0.00 | 0.00 | 0.00 | 33 | 1012.1 |
| 20260506132503 | 11 | 277 | 8.0 | 20.9 | 0.00 | 0.00 | 0.00 | 34 | 1012.0 |
| 20260506131504 | 10 | 280 | 8.0 | 25.7 | 0.00 | 0.00 | 0.00 | 33 | 1012.0 |
| 20260506130503 | 11 | 221 | 6.4 | 14.5 | 0.00 | 0.00 | 0.00 | 36 | 1011.9 |
| 20260506125524 | 8 | 240 | 8.0 | 22.5 | 0.00 | 0.00 | 0.00 | 36 | 1011.9 |
| 20260506124504 | 9 | 244 | 6.4 | 16.1 | 0.00 | 0.00 | 0.00 | 38 | 1011.9 |
| 20260506123504 | 12 | 209 | 9.7 | 14.5 | 0.00 | 0.00 | 0.00 | 36 | 1011.7 |
| 20260506122503 | 11 | 235 | 6.4 | 14.5 | 0.00 | 0.00 | 0.00 | 36 | 1011.7 |
| 20260506121505 | 10 | 237 | 8.0 | 14.5 | 0.00 | 0.00 | 0.00 | 38 | 1011.7 |
| 20260506120504 | 9 | 267 | 11.3 | 33.8 | 0.00 | 0.00 | 0.00 | 37 | 1011.7 |
| 20260506115504 | 10 | 286 | 8.0 | 16.1 | 0.00 | 0.00 | 0.00 | 38 | 1011.6 |
| 20260506114504 | 10 | 249 | 6.4 | 16.1 | 0.00 | 0.00 | 0.00 | 40 | 1011.6 |
| 20260506113503 | 11 | 209 | 4.8 | 11.3 | 0.00 | 0.00 | 0.00 | 41 | 1011.5 |
| 20260506112505 | 10 | 236 | 8.0 | 19.3 | 0.00 | 0.00 | 0.00 | 41 | 1011.4 |
| 20260506111504 | 10 | 246 | 6.4 | 16.1 | 0.00 | 0.00 | 0.00 | 38 | 1011.4 |
| 20260506110504 | 11 | 251 | 9.7 | 20.9 | 0.00 | 0.00 | 0.00 | 37 | 1011.3 |
| 20260506105525 | 10 | 254 | 9.7 | 20.9 | 0.00 | 0.00 | 0.00 | 38 | 1011.2 |
| 20260506104504 | 12 | 228 | 9.7 | 24.1 | 0.00 | 0.00 | 0.00 | 39 | 1011.0 |
| 20260506103503 | 11 | 256 | 11.3 | 25.7 | 0.00 | 0.00 | 0.00 | 39 | 1011.0 |
| 20260506102505 | 12 | 225 | 6.4 | 9.7 | 0.00 | 0.00 | 0.00 | 41 | 1010.9 |
| 20260506101504 | 11 | 280 | 11.3 | 24.1 | 0.00 | 0.00 | 0.00 | 37 | 1010.8 |
| 20260506100524 | 11 | 210 | 8.0 | 16.1 | 0.00 | 0.00 | 0.00 | 41 | 1010.8 |
| 20260506095505 | 10 | 247 | 6.4 | 17.7 | 0.00 | 0.00 | 0.00 | 41 | 1010.8 |
| 20260506094504 | 12 | 217 | 6.4 | 16.1 | 0.00 | 0.00 | 0.00 | 43 | 1010.6 |
| 20260506093523 | 11 | 205 | 9.7 | 19.3 | 0.00 | 0.00 | 0.00 | 43 | 1010.5 |
| 20260506092503 | 9 | 254 | 9.7 | 20.9 | 0.00 | 0.00 | 0.00 | 43 | 1010.5 |
| 20260506091504 | 11 | 222 | 4.8 | 12.9 | 0.00 | 0.00 | 0.00 | 44 | 1010.3 |
| 20260506090504 | 10 | 208 | 9.7 | 19.3 | 0.00 | 0.00 | 0.00 | 44 | 1010.3 |
| 20260506085504 | 10 | 213 | 6.4 | 11.3 | 0.00 | 0.00 | 0.00 | 49 | 1010.3 |
| 20260506084503 | 9 | 220 | 8.0 | 27.4 | 0.00 | 0.00 | 0.00 | 52 | 1010.3 |
| 20260506083505 | 9 | 225 | 6.4 | 17.7 | 0.00 | 0.00 | 0.00 | 51 | 1010.2 |
| 20260506082524 | 9 | 214 | 8.0 | 17.7 | 0.00 | 0.00 | 0.00 | 51 | 1010.1 |
| 20260506081504 | 8 | 249 | 8.0 | 19.3 | 0.00 | 0.00 | 0.00 | 48 | 1010.0 |
| 20260506080503 | 10 | 225 | 6.4 | 24.1 | 0.00 | 0.00 | 0.00 | 50 | 1009.9 |
| 20260506073504 | 8 | 240 | 8.0 | 17.7 | 0.00 | 0.00 | 0.00 | 52 | 1009.7 |
| 20260506072504 | 8 | 254 | 9.7 | 22.5 | 0.00 | 0.00 | 0.00 | 51 | 1009.6 |
| 20260506071504 | 8 | 259 | 9.7 | 17.7 | 0.00 | 0.00 | 0.00 | 51 | 1009.6 |
| 20260506070503 | 8 | 263 | 6.4 | 27.4 | 0.00 | 0.00 | 0.00 | 54 | 1009.5 |